GW6101 Weather Reports


time (UTC)temp
F
wind
direction
speed
knots
gust
knots
rain 1hr
in
rain 24hr
in
rain mn
in
humidity
%
barometer
mb
20260507174526 66 325 1.7 5.2 0.00 0.02 0.02 37 1010.2
20260507174007 66 269 1.7 3.5 0.00 0.02 0.02 40 1010.3
20260507173018 65 57 2.6 7.8 0.00 0.02 0.02 36 1010.5
20260507172009 65 200 0.0 7.0 0.00 0.02 0.02 37 1010.7
20260507171522 66 76 0.0 7.0 0.00 0.02 0.02 36 1010.8
20260507170022 63 17 1.7 8.7 0.00 0.02 0.02 38 1011.0
20260507165509 64 146 3.5 8.7 0.00 0.02 0.02 37 1011.0
20260507165010 63 53 1.7 5.2 0.00 0.02 0.02 39 1011.1
20260507164525 63 265 1.7 7.0 0.00 0.02 0.02 37 1011.2
20260507164014 63 329 2.6 7.0 0.00 0.02 0.02 37 1011.3
20260507163509 61 88 1.7 3.5 0.00 0.02 0.02 42 1011.3
20260507163024 63 321 0.9 2.6 0.00 0.02 0.02 40 1011.4
20260507162508 63 55 1.7 7.0 0.00 0.02 0.02 41 1011.7
20260507161528 60 111 0.0 5.2 0.00 0.02 0.02 42 1011.5
20260507160507 60 106 0.9 4.3 0.00 0.02 0.02 41 1011.9
20260507160005 61 190 0.9 6.1 0.00 0.02 0.02 43 1011.9
20260507155504 60 344 0.9 6.1 0.00 0.02 0.02 43 1012.0
20260507154508 60 352 1.7 6.1 0.00 0.02 0.02 44 1012.0
20260507153506 58 101 1.7 3.5 0.00 0.02 0.02 46 1012.2
20260507153011 58 30 0.9 4.3 0.00 0.02 0.02 46 1012.3
20260507152507 57 74 0.9 5.2 0.00 0.02 0.02 48 1012.4
20260507150510 57 108 0.9 7.0 0.00 0.03 0.02 49 1012.4
20260507150023 57 331 1.7 7.8 0.00 0.03 0.02 48 1012.6
20260507142008 55 344 2.6 7.0 0.00 0.03 0.02 52 1012.8
20260507141518 55 273 1.7 5.2 0.00 0.03 0.02 52 1012.9
20260507141012 55 19 1.7 4.3 0.00 0.05 0.02 52 1013.0
20260507140507 55 314 1.7 7.0 0.00 0.05 0.02 53 1013.0
20260507140020 54 271 1.7 7.0 0.00 0.06 0.02 52 1013.2
20260507135512 54 336 2.6 7.0 0.00 0.06 0.02 52 1013.3
20260507135008 54 352 2.6 6.1 0.00 0.06 0.02 53 1013.3
20260507134005 54 273 0.9 7.0 0.00 0.07 0.02 54 1013.3
20260507133505 54 326 0.9 7.0 0.00 0.08 0.02 53 1013.3
20260507132005 54 317 1.7 8.7 0.00 0.10 0.02 54 1013.2
20260507131523 54 30 3.5 8.7 0.00 0.11 0.02 53 1013.2
20260507130504 54 319 1.7 4.3 0.00 0.14 0.02 53 1013.3
20260507130016 54 317 0.9 4.3 0.00 0.15 0.02 56 1013.4
20260507125508 54 9 1.7 5.2 0.00 0.16 0.02 55 1013.3
20260507125011 54 302 1.7 7.0 0.00 0.17 0.02 55 1013.5
20260507124521 54 291 1.7 7.0 0.00 0.17 0.02 55 1013.5
20260507124008 54 53 0.9 7.0 0.00 0.18 0.02 57 1013.6
20260507123509 54 300 1.7 7.0 0.00 0.18 0.02 56 1013.4
20260507122504 54 89 0.0 7.0 0.00 0.18 0.02 59 1013.2
20260507121512 54 37 0.9 6.1 0.00 0.19 0.02 60 1013.1
20260507120507 54 286 0.9 3.5 0.00 0.20 0.02 62 1013.1
20260507115506 54 307 1.7 6.1 0.00 0.21 0.02 61 1013.1
20260507115007 54 290 1.7 4.3 0.00 0.22 0.02 61 1013.0
20260507114520 54 265 1.7 6.1 0.00 0.23 0.02 61 1012.8
20260507114008 54 311 1.7 6.1 0.00 0.23 0.02 61 1012.9
20260507113509 54 345 1.7 6.1 0.00 0.24 0.02 62 1012.8
20260507113023 54 279 1.7 6.1 0.00 0.25 0.02 63 1012.8
20260507112509 54 306 1.7 6.1 0.00 0.26 0.02 64 1012.7
20260507112011 54 5 1.7 4.3 0.00 0.26 0.02 68 1012.7
20260507111004 54 298 0.0 4.3 0.00 0.27 0.02 69 1012.8
20260507110016 54 293 0.0 2.6 0.00 0.27 0.02 68 1012.8
20260507105505 54 255 0.0 2.6 0.00 0.27 0.02 68 1012.7
20260507105006 54 360 0.9 4.3 0.00 0.27 0.02 67 1012.6
20260507104519 54 5 0.9 4.3 0.00 0.27 0.02 68 1012.6
20260507104011 54 36 0.9 3.5 0.00 0.27 0.02 68 1012.4
20260507103507 54 10 0.9 3.5 0.00 0.27 0.02 68 1012.4
20260507103023 54 330 1.7 3.5 0.00 0.27 0.02 68 1012.5
20260507102508 54 348 0.9 3.5 0.00 0.27 0.02 69 1012.5
20260507102011 54 327 0.9 3.5 0.00 0.27 0.02 70 1012.5
20260507101538 54 9 0.9 5.2 0.00 0.27 0.02 70 1012.4
20260507101012 54 26 0.0 5.2 0.00 0.27 0.02 70 1012.2
20260507100508 54 92 0.9 2.6 0.00 0.27 0.02 71 1012.1
20260507100016 54 347 0.0 3.5 0.00 0.27 0.02 72 1012.3
20260507095506 54 331 0.0 3.5 0.00 0.27 0.02 74 1012.1
20260507095006 54 352 0.0 3.5 0.00 0.27 0.02 75 1012.2
20260507094518 55 71 0.9 2.6 0.00 0.27 0.02 73 1012.1
20260507094010 55 302 0.0 3.5 0.00 0.27 0.02 74 1012.0
20260507093507 55 341 0.9 3.5 0.00 0.27 0.02 75 1012.0
20260507093019 55 42 0.0 2.6 0.00 0.27 0.02 76 1012.0
20260507092512 55 309 0.0 3.5 0.00 0.27 0.02 77 1011.9
20260507092009 54 9 0.9 3.5 0.00 0.27 0.02 78 1011.8
20260507091526 54 71 0.0 1.7 0.00 0.27 0.02 78 1011.7
20260507091010 54 41 0.0 1.7 0.00 0.27 0.02 78 1011.7
20260507090511 55 57 0.0 0.0 0.00 0.27 0.02 77 1011.9
20260507090031 55 30 0.0 1.7 0.00 0.27 0.02 76 1011.8
20260507085508 55 51 0.0 2.6 0.00 0.27 0.02 75 1011.8
20260507084516 55 9 0.9 2.6 0.00 0.27 0.02 76 1011.8
20260507084007 55 317 0.0 1.7 0.00 0.27 0.02 76 1011.9
20260507083510 55 331 0.9 3.5 0.00 0.27 0.02 75 1011.7
20260507082009 55 352 0.0 2.6 0.00 0.27 0.02 77 1011.7
20260507081523 55 287 0.0 3.5 0.00 0.27 0.02 77 1011.6
20260507081007 55 344 0.9 3.5 0.00 0.27 0.02 78 1011.4
20260507080511 55 309 0.9 2.6 0.00 0.27 0.02 78 1011.3
20260507080023 55 352 0.0 1.7 0.00 0.27 0.02 79 1011.2
20260507075511 55 305 0.0 1.7 0.00 0.27 0.02 79 1011.1
20260507075011 55 352 0.0 1.7 0.00 0.27 0.02 78 1011.1
20260507074525 55 327 0.0 1.7 0.00 0.27 0.02 80 1011.1
20260507074008 55 298 0.0 1.7 0.00 0.27 0.02 80 1011.2
20260507073510 54 294 0.0 1.7 0.00 0.27 0.02 81 1011.1
20260507073017 54 271 0.0 0.9 0.00 0.27 0.02 81 1011.1
20260507072508 55 284 0.0 1.7 0.00 0.27 0.02 81 1011.0
20260507072006 54 271 0.0 1.7 0.00 0.27 0.02 80 1011.0
20260507071520 54 331 0.9 1.7 0.00 0.27 0.02 81 1011.0
20260507071009 54 352 0.0 3.5 0.00 0.27 0.02 80 1011.1
20260507070503 54 333 0.9 3.5 0.00 0.27 0.02 81 1011.2
20260507065503 54 351 0.0 7.0 0.00 0.27 0.02 80 1011.1
20260507064510 55 335 1.7 7.0 0.00 0.27 0.02 77 1011.2
20260507063507 55 66 0.9 9.6 0.00 0.27 0.02 76 1011.4
20260507062008 56 311 2.6 6.1 0.00 0.27 0.02 74 1011.4
20260507061521 56 300 1.7 6.1 0.00 0.27 0.02 76 1011.8
20260507061009 56 29 1.7 6.1 0.00 0.27 0.02 76 1011.3
20260507060515 56 61 0.9 4.3 0.01 0.27 0.02 77 1011.3
20260507060015 56 255 0.9 3.5 0.01 0.27 0.02 78 1011.5
20260507055504 56 78 0.0 5.2 0.01 0.27 0.02 79 1011.3
20260507055003 56 360 0.9 5.2 0.01 0.27 0.02 78 1011.4
20260507054505 56 291 0.9 5.2 0.01 0.27 0.02 80 1011.3
20260507054003 56 278 0.9 5.2 0.01 0.27 0.02 80 1011.4
20260507053503 56 303 0.9 3.5 0.01 0.27 0.02 81 1011.2
20260507053012 56 9 0.9 7.0 0.02 0.27 0.02 81 1011.3
20260507052506 56 346 0.9 7.0 0.02 0.27 0.02 81 1011.4
20260507052007 56 360 2.6 7.8 0.02 0.27 0.02 81 1011.5
20260507051517 56 30 1.7 7.8 0.02 0.27 0.02 80 1011.4
20260507051007 57 336 2.6 8.7 0.02 0.27 0.02 81 1011.5
20260507050031 57 326 2.6 7.0 0.01 0.26 0.01 83 1011.2
20260507045509 57 344 0.9 2.6 0.01 0.26 0.01 84 1011.4
20260507045009 57 61 0.9 4.3 0.01 0.26 0.01 84 1011.3
20260507044003 57 66 0.0 4.3 0.01 0.26 0.01 84 1011.4
20260507043503 58 298 0.0 6.1 0.01 0.26 0.01 81 1011.4
20260507043010 59 38 0.9 6.1 0.00 0.25 0.00 79 1011.4
20260507042006 59 346 0.0 1.7 0.00 0.25 0.00 79 1011.0
20260507041527 59 261 0.0 4.3 0.00 0.25 0.00 78 1011.0
20260507041004 59 306 0.9 7.0 0.00 0.25 0.00 77 1011.3
20260507034523 60 304 1.7 6.1 0.00 0.25 0.25 74 1011.0
20260507034009 60 335 1.7 4.3 0.00 0.25 0.25 74 1010.7
20260507033510 60 55 0.9 3.5 0.00 0.25 0.25 74 1010.5
20260507032008 61 263 2.6 8.7 0.00 0.25 0.25 72 1011.0
20260507031523 61 278 1.7 8.7 0.00 0.25 0.25 72 1010.9
20260507031009 61 323 0.9 8.7 0.00 0.25 0.25 73 1010.8
20260507030510 61 294 1.7 7.0 0.00 0.25 0.25 73 1011.0
20260507030021 61 121 2.6 6.1 0.00 0.25 0.25 73 1011.0
20260507025007 62 315 1.7 7.8 0.00 0.25 0.25 73 1010.6
20260507023511 62 265 0.9 7.8 0.00 0.25 0.25 73 1010.2
20260507023022 62 297 2.6 8.7 0.00 0.25 0.25 73 1010.5
20260507022516 62 319 4.3 8.7 0.00 0.25 0.25 73 1010.3
20260507022005 63 65 3.5 8.7 0.00 0.25 0.25 74 1010.2
20260507021510 63 352 2.6 8.7 0.00 0.25 0.25 75 1010.4
20260507021004 63 352 3.5 8.7 0.00 0.25 0.25 74 1010.3
20260507015504 64 22 1.7 7.8 0.00 0.25 0.25 75 1009.9
20260507013025 65 54 2.6 10.4 0.00 0.25 0.25 77 1010.0
20260507012011 65 26 0.9 3.5 0.00 0.25 0.25 78 1010.0
20260507011528 66 55 0.0 9.6 0.00 0.25 0.25 78 1010.0
20260507011008 66 327 2.6 9.6 0.00 0.25 0.25 77 1010.1
20260507010507 66 67 2.6 8.7 0.00 0.25 0.25 77 1009.8
20260507010014 66 283 3.5 8.7 0.00 0.25 0.25 76 1009.9
20260507005505 66 281 0.9 6.1 0.00 0.25 0.25 76 1009.9
20260507005007 67 278 1.7 10.4 0.00 0.25 0.25 76 1009.9
20260507004532 67 288 6.1 10.4 0.00 0.25 0.25 76 1009.9
20260507002509 67 303 1.7 7.8 0.00 0.25 0.25 79 1009.6
20260507002003 67 270 1.7 5.2 0.00 0.25 0.25 80 1009.6
20260507001505 68 281 0.9 5.2 0.00 0.25 0.25 80 1009.6
20260507001003 68 337 2.6 5.2 0.00 0.25 0.25 80 1009.5
20260507000507 68 328 1.7 2.6 0.00 0.25 0.25 79 1009.4
20260507000013 68 296 0.9 2.6 0.00 0.25 0.25 78 1009.3
20260506235507 68 282 0.9 2.6 0.00 0.25 0.25 78 1009.1
20260506235005 69 279 0.9 2.6 0.00 0.25 0.25 78 1009.1
20260506234521 69 238 0.0 2.6 0.00 0.25 0.25 78 1009.1
20260506234008 69 301 0.0 2.6 0.00 0.25 0.25 77 1009.0
20260506233509 69 261 0.9 6.1 0.00 0.25 0.25 76 1009.0
20260506233021 69 281 0.0 6.1 0.00 0.25 0.25 75 1008.7
20260506232009 69 268 0.9 5.2 0.00 0.25 0.25 74 1008.6
20260506230504 69 257 3.5 8.7 0.00 0.25 0.25 74 1008.3
20260506230007 70 252 0.0 7.8 0.00 0.25 0.25 74 1008.4
20260506225503 70 281 2.6 7.8 0.00 0.25 0.25 74 1008.5
20260506224516 70 309 0.9 6.1 0.00 0.25 0.25 74 1008.5
20260506224007 70 227 1.7 5.2 0.00 0.25 0.25 74 1008.5
20260506223507 70 244 0.0 2.6 0.00 0.25 0.25 74 1008.5
20260506223025 70 237 0.9 5.2 0.00 0.25 0.25 74 1008.3
20260506222507 70 254 2.6 7.0 0.00 0.25 0.25 73 1008.2
20260506222009 70 250 1.7 7.8 0.00 0.25 0.25 73 1008.4
20260506221524 70 182 3.5 7.8 0.00 0.25 0.25 73 1008.5
20260506221014 71 287 1.7 6.1 0.00 0.25 0.25 73 1008.3
20260506220514 71 244 1.7 7.0 0.00 0.25 0.25 73 1008.2
20260506220027 71 216 2.6 7.0 0.00 0.25 0.25 72 1008.3
20260506215509 71 267 0.9 6.1 0.00 0.25 0.25 73 1008.2
20260506215010 71 206 0.9 7.0 0.00 0.25 0.25 74 1008.3
20260506214512 71 167 2.6 7.0 0.00 0.25 0.25 71 1008.2
20260506214008 71 300 3.5 7.0 0.00 0.25 0.25 72 1008.2
20260506213511 71 236 2.6 8.7 0.00 0.25 0.25 73 1008.2
20260506213015 70 275 2.6 8.7 0.00 0.25 0.25 73 1008.2
20260506212507 71 207 3.5 11.3 0.00 0.25 0.25 72 1008.2
20260506212008 71 146 4.3 11.3 0.00 0.25 0.25 71 1008.1
20260506211519 71 174 2.6 10.4 0.00 0.25 0.25 72 1008.0
20260506211006 71 294 3.5 9.6 0.00 0.25 0.25 72 1008.0
20260506210507 71 238 2.6 11.3 0.00 0.25 0.25 72 1007.9
20260506210030 71 168 3.5 11.3 0.00 0.25 0.25 72 1007.8
20260506205511 71 214 2.6 9.6 0.00 0.25 0.25 72 1007.9
20260506205011 71 227 1.7 13.0 0.00 0.25 0.25 71 1007.8
20260506204527 71 301 4.3 13.0 0.00 0.25 0.25 71 1007.8
20260506204005 71 232 6.1 13.0 0.00 0.25 0.25 71 1007.7
20260506203508 71 188 2.6 11.3 0.00 0.25 0.25 72 1007.7
20260506203024 71 217 4.3 11.3 0.00 0.25 0.25 72 1007.8
20260506202008 70 212 3.5 9.6 0.00 0.25 0.25 72 1007.9
20260506201530 70 150 4.3 10.4 0.00 0.25 0.25 72 1008.0
20260506201010 70 269 3.5 13.9 0.00 0.25 0.25 72 1007.9
20260506200507 71 218 5.2 13.9 0.00 0.25 0.25 71 1008.0
20260506200024 70 218 2.6 8.7 0.00 0.25 0.25 73 1008.0
20260506195507 70 220 3.5 9.6 0.00 0.25 0.25 73 1008.1
20260506195011 70 229 4.3 9.6 0.00 0.25 0.25 73 1008.1
20260506194529 69 240 4.3 8.7 0.00 0.25 0.25 73 1008.0
20260506194009 69 173 2.6 11.3 0.00 0.25 0.25 74 1008.0
20260506193508 69 269 4.3 13.9 0.00 0.25 0.25 73 1008.1
20260506193024 69 273 4.3 13.9 0.00 0.25 0.25 74 1008.2
20260506192504 69 237 7.0 12.2 0.00 0.25 0.25 73 1008.1
20260506190511 69 193 2.6 16.5 0.00 0.25 0.25 73 1008.3
20260506190022 69 193 4.3 16.5 0.00 0.25 0.25 73 1008.3
20260506185506 69 254 7.0 13.0 0.00 0.25 0.25 72 1008.5
20260506185014 69 190 3.5 12.2 0.00 0.25 0.25 73 1008.3
20260506184525 69 200 3.5 10.4 0.00 0.25 0.25 74 1008.3
20260506184011 68 188 4.3 13.0 0.00 0.25 0.25 74 1008.5
20260506183511 68 197 6.1 14.8 0.00 0.25 0.25 75 1008.5
20260506183030 67 184 7.8 17.4 0.00 0.25 0.25 75 1008.4
20260506182508 67 149 6.1 17.4 0.00 0.25 0.25 75 1008.6
20260506182011 67 203 4.3 14.8 0.00 0.25 0.25 76 1008.6
20260506181514 67 281 4.3 13.0 0.00 0.25 0.25 76 1008.7
20260506181005 67 234 5.2 11.3 0.00 0.25 0.25 76 1008.6
20260506180511 67 206 5.2 11.3 0.00 0.25 0.25 76 1008.5
20260506180022 67 204 3.5 15.6 0.00 0.25 0.25 77 1008.7
20260506175510 67 167 7.8 13.9 0.00 0.25 0.25 76 1008.7